Regional Weather Roundup
Issued by NWS Lake Charles, LA

Home | Current Version | Previous Version | Text Only | Print | Product List | Glossary On
Versions: 1 2 3 4 5 6 7 8 9 10 11 12 13 14 15 16 17 18 19 20 21 22 23 24 25 26 27 28
000
ASUS44 KLCH 061410
RWRLCH
REGIONAL WEATHER ROUNDUP
NATIONAL WEATHER SERVICE LAKE CHARLES LA
800 AM CST TUE DEC 06 2016

Note: "fair" indicates few or no clouds below 12,000 feet with no
significant weather and/or obstructions to visibility.


ACROSS SOUTHEAST TEXAS

CITY           SKY/WX    TMP DP  RH WIND       PRES   REMARKS
BEAUMONT       FOG       52  51  97 CALM      29.90R VSB 1/4
BEAUMONT CITY  CLOUDY    52  51  94 CALM      29.91R FOG
ORANGE         CLOUDY   N/A N/A N/A CALM      29.93R
JASPER         CLOUDY    52  51  97 W5        29.92R
$$

ACROSS CENTRAL LOUISIANA

CITY           SKY/WX    TMP DP  RH WIND       PRES   REMARKS
LEESVILLE      CLOUDY    50  49  97 W7        29.89R
FULLERTON      CLOUDY    51  50  96 VRB3      29.87R
ALEXANDRIA INT CLOUDY    51  49  92 NW10      29.87R
ESLER FIELD    CLOUDY    51  49  92 VRB5      29.88R
DERIDDER       CLOUDY    51  50  95 CALM      29.91R
OAKDALE        CLOUDY    52  49  91 W3        29.90R
OPELOUSAS      CLOUDY    51  49  92 W7        29.91R
$$

ACROSS SOUTHWEST AND SOUTH CENTRAL LOUISIANA

CITY           SKY/WX    TMP DP  RH WIND       PRES   REMARKS
SULPHUR        CLOUDY    53  51  95 W5        29.92R
LAKE CHARLES   CLOUDY    51  50  96 W3        29.91R
CHENNAULT INT  CLOUDY    52  50  93 CALM      29.91R
CAMERON PHI    SUNNY     52  52 100 CALM      29.90R
DEQUINCY       CLOUDY    50  49  95 NW3       29.91R
JENNINGS       CLOUDY    52  50  93 NW3       29.92R
LAFAYETTE      CLOUDY    54  51  90 NW5       29.91R
NEW IBERIA     CLOUDY    54  49  83 NW5       29.92R
ABBEVILLE      CLOUDY    54  52  94 W6        29.92R
PATTERSON      CLOUDY   N/A N/A N/A W9        29.92R
SALT POINT     NOT AVBL
$$

SELECTED SITES ACROSS THE REGION

CITY           SKY/WX    TMP DP  RH WIND       PRES   REMARKS
HOUSTON BUSH   FOG       50  50 100 CALM      29.89R VSB 1/16
HOUSTON HOBBY  CLEAR     49  48  97 S3        29.89R
GALVESTON      SUNNY     55  54  96 CALM      29.90R
COLLEGE STAT   CLEAR     48  47  96 CALM      29.86R
CONROE         CLOUDY    50  49  96 S7        29.87R FOG
HUNTSVILLE     CLOUDY    49  48  97 S3        29.86S FOG
LUFKIN         CLOUDY    50  49  96 W3        29.89R
SHREVEPORT     CLOUDY    51  49  92 W5        29.88R
MONROE         CLOUDY    50  47  89 W7        29.88R
NATCHEZ MS     CLOUDY    50  45  81 W8        29.88R
BATON ROUGE    CLOUDY    53  51  93 SW10      29.90R
N.O. INTL ARPT CLOUDY    55  54  96 W14       29.90R
SLIDELL        CLOUDY    56  52  86 VRB3      29.87R
$$

MARINE REPORTS

STATION/POSITION TIME  SKY/WX   TEMP    WIND        PRES    VSBY
                                AIR SEA DIR/SP/G
                 (UTC)          (F)     (DEG/KT/KT) (MB)    (MI)
BUOY 30 S HIGH I 1350            62 66  270/ 12/ 12 1012.3R
WVE H/P(F/S)=  3/ 6

SEA RIM ST PARK  1400            54     280/  5/  6 1013.0R
PORT ARTHUR      1348               58  270/  5/  6 1012.6R
SABINE PASS N    1348            53 59  290/  4/  5 1013.6R
TEXAS POINT      NOT AVBL
CALCASIEU PASS   1348            52 57  340/  3/  3   N/A
LK CHARLES BEACH 1348            52 58              1013.2R
MARSH ISLAND     1300            56                   N/A
FRESH WATER LOCK 1348            53 60  290/  4/  6 1013.5R
AMERADA PASS     1348            56 61  280/ 11/ 14 1012.6R
$$




USA.gov is the U.S. government's official web portal to all federal, state and local government web resources and services.